sat.trackr.live / text

‹ back to catalog

STARLINK-34106

NORAD 63907 · 2025-095T

PAYLOAD ACTIVE UNKNOWN

§ Identity

Operator
Country
US
Launch date
2025-05-10
Launch site
AFETR
Launch vehicle
Mass (kg)
RCS (m²)

Purposes: comms

External: N2YO · Heavens-Above · Gunter

§ Orbital elements

Epoch: 2026-05-25T00:14:43.890144Z

Period
94.27 min
Inclination
43.0000°
Eccentricity
0.0001459
Mean motion
15.27598513 rev/d
Perigee alt
482.0 km
Apogee alt
484.0 km
Semi-major
6,861.1 km
B*
7.7300e-4
RAAN
104.8841°
Arg perigee
271.0597°
Mean anomaly
89.0087°
Rev number
5,945

§ Raw data

STARLINK-341061 63907U 25095T   26145.01023021  .00021082  00000+0  77300-3 0  99952 63907  43.0000 104.8841 0001459 271.0597  89.0087 15.27598513 59451

JSON: /api/v1/satellites/63907 · /tle

For live sub-satellite position, see the globe view (requires WebGL).

§ Visibility from observer

Set your observer location to see the next 7 days of passes ≥ 10°. The values pass through the URL so the page stays shareable.

No JS? Fill the form by hand. The geolocation button needs JavaScript.